This demonstration page uses our WeatherBlox Daily Observations layout. Learn more.

Left ArrowRight Arrow

Hourly Observations for June 17, 2019

Temp ( °F °C ) Dew Point ( °F °C ) Humidity (%) Winds ( mph kmh ) Pressure ( in mb ) Visibility ( mi km ) Precip ( " mm )
12:53 am 00:53 Clear 52 11.1 49 9.4 89 89 E 5 7 29.99 1016 10 16 0.00 0.00
1:53 am 01:53 Clear 51 10.6 49 9.4 92 92 E 3 6 29.99 1016 10 16 0.00 0.00
2:46 am 02:46 Mostly Clear 46 8 45 7 93 93 S 5 7 30.04 1017 10 16 0.00 0.00
2:53 am 02:53 Clear 48 8.9 44 6.7 86 86 SSE 3 6 30.01 1016 10 16 0.00 0.00
3:53 am 03:53 Clear 48 8.9 46 7.8 93 93 Calm 30.01 1016 10 16 0.00 0.00
4:53 am 04:53 Clear 47 8.3 46 7.8 97 97 ENE 6 9 30.01 1016 10 16 0.00 0.00
5:53 am 05:53 Sunny 47 8.3 46 7.8 97 97 E 5 7 30.04 1017 10 16 0.00 0.00
6:53 am 06:53 Sunny 50 10 47 8.3 89 89 ENE 9 15 30.04 1017 10 16 0.00 0.00
7:53 am 07:53 Sunny 56 13.3 49 9.4 77 77 ENE 9 15 30.03 1017 10 16 0.00 0.00
8:53 am 08:53 Sunny 62 16.7 51 10.6 67 67 ENE 10 17 30.04 1017 10 16 0.00 0.00
9:53 am 09:53 Sunny 66 18.9 51 10.6 59 59 E 10 17 30.04 1017 10 16 0.00 0.00
10:53 am 10:53 Sunny 70 21.1 46 7.8 42 42 E 6 9 30.03 1017 10 16 0.00 0.00
11:53 am 11:53 Sunny 71 21.7 47 8.3 42 42 E 10 17 30.03 1017 10 16 0.00 0.00
12:53 pm 12:53 Sunny 73 22.8 44 6.7 35 35 Calm 30.02 1017 10 16 0.00 0.00
1:53 pm 13:53 Mostly Sunny 76 24.4 45 7.2 33 33 VRB 5 7 30.01 1016 10 16 0.00 0.00
2:53 pm 14:53 Sunny 77 25 41 5 28 28 VRB 7 11 30.00 1016 10 16 0.00 0.00
3:53 pm 15:53 Partly Cloudy 77 25 42 5.6 29 29 E 9 15 29.98 1015 10 16 0.00 0.00
4:53 pm 16:53 Partly Cloudy 77 25 42 5.6 29 29 NE 9 15 29.97 1015 10 16 0.00 0.00
5:53 pm 17:53 Mostly Sunny 78 25.6 41 5 27 27 N 5 7 29.96 1014 10 16 0.00 0.00
6:53 pm 18:53 Sunny 77 25 41 5 28 28 SE 7 11 29.95 1014 10 16 0.00 0.00
7:53 pm 19:53 Sunny 73 22.8 45 7.2 37 37 SE 7 11 29.95 1014 10 16 0.00 0.00
8:53 pm 20:53 Sunny 69 20.6 49 9.4 49 49 ESE 6 9 29.94 1014 10 16 0.00 0.00
9:53 pm 21:53 Clear 63 17.2 49 9.4 60 60 SSE 3 6 29.95 1014 10 16 0.00 0.00
10:53 pm 22:53 Clear 60 15.6 45 7.2 58 58 ENE 3 6 29.94 1014 10 16 0.00 0.00
11:53 pm 23:53 Clear 64 17.8 45 7.2 50 50 VRB 5 7 29.93 1014 10 16 0.00 0.00

Powered by AerisWeather